EA1M Weather Reports


Display with metric or nautical units.
time (UTC)temp
F
wind
direction
speed
MPH
gust
MPH
rain 1hr
in
rain 24hr
in
rain mn
in
humidity
%
barometer
mb
20260508213022 55 96 2.0 4.0 0.00 0.00 0.00 82 1009.9
20260508212046 55 95 3.0 6.0 0.00 0.00 0.00 82 1009.8
20260508211110 56 110 2.0 3.0 0.00 0.00 0.00 82 1009.8
20260508210050 57 95 2.0 3.0 0.00 0.00 0.00 79 1009.9
20260508205054 58 108 2.0 6.0 0.00 0.00 0.00 75 1009.8
20260508204118 57 66 2.0 7.0 0.00 0.00 0.00 76 1009.8
20260508203038 57 48 0.0 3.0 0.00 0.00 0.00 76 1009.7
20260508202102 58 52 1.0 2.0 0.00 0.00 0.00 76 1009.6
20260508201103 58 42 0.0 2.0 0.00 0.00 0.00 75 1009.6
20260508200046 59 0.0 1.0 0.00 0.00 0.00 73 1009.5
20260508195110 59 0.0 1.0 0.00 0.00 0.00 71 1009.5
20260508194030 60 0.0 0.0 0.00 0.00 0.00 69 1009.4
20260508193053 60 67 0.0 2.0 0.00 0.00 0.00 69 1009.5
20260508192117 60 91 2.0 6.0 0.00 0.00 0.00 67 1009.6
20260508191038 60 136 4.0 7.0 0.00 0.00 0.00 67 1009.6
20260508185022 61 89 1.0 6.0 0.00 0.00 0.00 69 1009.4
20260508184206 61 100 2.0 4.0 0.00 0.00 0.00 68 1009.4
20260508183111 61 110 3.0 6.0 0.00 0.00 0.00 67 1009.4
20260508182030 61 163 5.0 9.0 0.00 0.00 0.00 69 1009.2
20260508181054 61 138 3.0 6.0 0.00 0.00 0.00 70 1009.1
20260508180117 61 125 3.0 6.0 0.00 0.00 0.00 71 1009.0
20260508175037 60 127 3.0 6.0 0.00 0.00 0.00 73 1009.1
20260508174103 60 96 2.0 6.0 0.00 0.00 0.00 75 1009.2
20260508173022 60 42 1.0 2.0 0.00 0.00 0.00 77 1009.1
20260508172046 60 30 1.0 3.0 0.00 0.00 0.00 77 1009.1
20260508171109 60 25 3.0 4.0 0.00 0.00 0.00 77 1009.1
20260508170051 60 337 2.0 6.0 0.00 0.00 0.00 78 1009.1
20260508165054 60 7 1.0 6.0 0.00 0.00 0.00 77 1009.3
20260508164118 60 3 2.0 6.0 0.00 0.00 0.00 77 1009.1
20260508163037 60 19 3.0 7.0 0.00 0.00 0.00 77 1009.3
20260508162101 61 360 4.0 8.0 0.00 0.00 0.00 76 1009.3
20260508161042 60 28 2.0 4.0 0.00 0.00 0.00 75 1009.4
20260508160045 60 275 3.0 6.0 0.00 0.00 0.00 73 1009.4
20260508155109 62 61 1.0 3.0 0.00 0.00 0.00 71 1009.3
20260508154031 61 24 1.0 3.0 0.00 0.00 0.00 74 1009.2
20260508153115 61 36 2.0 3.0 0.00 0.00 0.00 74 1009.2
20260508152119 61 65 1.0 3.0 0.00 0.00 0.00 75 1009.3
20260508151038 62 48 2.0 4.0 0.00 0.00 0.00 74 1009.4
20260508150204 61 24 2.0 4.0 0.00 0.00 0.00 76 1009.5
20260508145043 61 42 2.0 4.0 0.00 0.00 0.00 77 1009.6
20260508144045 60 29 1.0 2.0 0.00 0.00 0.00 79 1009.7
20260508143110 59 38 1.0 3.0 0.00 0.00 0.00 79 1009.8
20260508142030 60 3 1.0 4.0 0.00 0.00 0.00 79 1009.8
20260508141053 59 36 2.0 4.0 0.00 0.00 0.00 81 1009.9
20260508140118 59 9 2.0 3.0 0.00 0.00 0.00 79 1010.0
20260508135057 59 52 0.0 2.0 0.00 0.00 0.00 75 1010.0
20260508134101 59 90 1.0 2.0 0.00 0.00 0.00 76 1010.0
20260508133022 59 108 2.0 6.0 0.00 0.00 0.00 76 1010.1
20260508132046 60 234 3.0 8.0 0.00 0.00 0.00 75 1009.9
20260508131109 61 265 3.0 7.0 0.00 0.00 0.00 70 1009.8
20260508130049 61 326 4.0 9.0 0.00 0.00 0.00 66 1009.7
20260508125053 61 330 4.0 8.0 0.00 0.00 0.00 70 1009.5
20260508124117 61 318 6.0 14.0 0.00 0.00 0.00 70 1009.5
20260508123059 63 134 4.0 9.0 0.00 0.00 0.00 55 1009.4
20260508122102 63 165 6.0 11.0 0.00 0.00 0.00 56 1009.4
20260508121021 63 164 5.0 13.0 0.00 0.00 0.00 56 1009.5
20260508120045 63 174 7.0 14.0 0.00 0.00 0.00 55 1009.5
20260508115109 63 175 5.0 10.0 0.00 0.00 0.00 60 1009.4
20260508114030 62 158 5.0 9.0 0.00 0.00 0.00 62 1009.4
20260508113055 62 158 4.0 8.0 0.00 0.00 0.00 65 1009.4
20260508112138 61 142 4.0 9.0 0.00 0.00 0.00 67 1009.7
20260508111118 62 159 4.0 8.0 0.00 0.00 0.00 67 1009.8
20260508110121 61 165 6.0 11.0 0.00 0.00 0.00 67 1009.9
20260508105041 61 133 5.0 9.0 0.00 0.00 0.00 67 1009.9
20260508104046 61 158 8.0 13.0 0.00 0.00 0.00 68 1009.9
20260508103110 60 140 5.0 13.0 0.00 0.00 0.00 71 1009.9
20260508102030 60 176 7.0 13.0 0.00 0.00 0.00 73 1009.9
20260508101054 60 148 5.0 8.0 0.00 0.00 0.00 74 1009.8
20260508100118 59 141 5.0 10.0 0.00 0.00 0.00 76 1009.8
20260508095040 59 114 6.0 9.0 0.00 0.00 0.00 75 1009.8
20260508094101 59 115 4.0 8.0 0.00 0.00 0.00 77 1009.7
20260508093042 59 145 5.0 9.0 0.00 0.00 0.00 78 1009.6
20260508092105 58 102 4.0 9.0 0.00 0.00 0.00 78 1009.6
20260508091129 58 133 4.0 8.0 0.00 0.00 0.00 78 1009.5
20260508090029 57 129 4.0 8.0 0.00 0.00 0.00 79 1009.7
20260508085054 57 120 3.0 7.0 0.00 0.00 0.00 80 1009.7
20260508084118 57 113 3.0 6.0 0.00 0.00 0.00 81 1009.5
20260508083038 56 73 3.0 7.0 0.00 0.00 0.00 82 1009.5
20260508082101 56 103 4.0 10.0 0.00 0.00 0.00 82 1009.6
20260508081021 56 95 5.0 9.0 0.00 0.00 0.00 82 1009.8
20260508080046 56 112 4.0 8.0 0.00 0.00 0.00 83 1009.6
20260508075109 56 98 4.0 8.0 0.00 0.00 0.00 84 1009.5
20260508074029 55 91 5.0 9.0 0.00 0.00 0.00 84 1009.5
20260508073053 55 100 6.0 10.0 0.00 0.00 0.00 84 1009.5
20260508072117 55 111 4.0 8.0 0.00 0.00 0.00 85 1009.4
20260508071037 55 105 4.0 8.0 0.00 0.00 0.00 85 1009.5
20260508065022 54 86 4.0 9.0 0.00 0.00 0.00 85 1009.3
20260508064046 54 127 4.0 9.0 0.00 0.00 0.00 85 1009.2
20260508063130 54 103 3.0 6.0 0.00 0.00 0.00 85 1009.1
20260508062029 54 116 3.0 7.0 0.00 0.00 0.00 85 1008.9
20260508061114 54 92 3.0 4.0 0.00 0.00 0.00 85 1008.6
20260508060020 54 85 2.0 4.0 0.00 0.00 0.00 85 1008.7
20260508055038 54 74 2.0 6.0 0.00 0.00 0.00 85 1008.7
20260508054102 54 68 0.0 2.0 0.00 0.00 0.00 85 1008.7
20260508053022 54 94 1.0 2.0 0.00 0.00 0.00 85 1008.7
20260508052046 54 96 2.0 4.0 0.00 0.00 0.00 85 1008.7
20260508051109 54 91 3.0 6.0 0.00 0.00 0.00 86 1008.7
20260508050030 54 87 2.0 6.0 0.00 0.00 0.00 87 1008.7
20260508045054 54 71 1.0 2.0 0.00 0.00 0.00 87 1008.7
20260508044138 54 78 1.0 2.0 0.00 0.00 0.00 87 1008.7
20260508043038 54 87 2.0 3.0 0.00 0.00 0.00 86 1008.8
20260508042101 54 82 1.0 4.0 0.00 0.00 0.00 86 1008.7
20260508041042 54 113 2.0 3.0 0.00 0.00 0.00 86 1008.7
20260508040046 54 97 2.0 4.0 0.00 0.00 0.00 85 1008.7
20260508035129 54 89 2.0 4.0 0.00 0.00 0.00 85 1008.9
20260508034049 54 79 3.0 4.0 0.00 0.00 0.00 86 1008.9
20260508033053 53 82 2.0 4.0 0.00 0.00 0.00 87 1009.1
20260508032117 53 69 1.0 2.0 0.00 0.00 0.00 87 1009.1
20260508031037 54 96 2.0 3.0 0.00 0.00 0.00 86 1009.0
20260508025023 54 72 1.0 3.0 0.00 0.00 0.00 85 1009.0
20260508024046 54 85 2.0 4.0 0.00 0.00 0.00 86 1008.9
20260508023110 53 85 2.0 3.0 0.00 0.00 0.00 88 1008.9
20260508022030 53 62 1.0 2.0 0.00 0.00 0.00 89 1009.1
20260508021054 53 0.0 0.0 0.00 0.00 0.00 89 1009.1
20260508020137 53 0.0 0.0 0.00 0.00 0.00 89 1009.0
20260508015038 53 0.0 0.0 0.00 0.00 0.00 89 1009.3
20260508014102 53 67 1.0 2.0 0.00 0.00 0.00 90 1009.4
20260508013043 53 58 0.0 1.0 0.00 0.00 0.00 90 1009.5
20260508012046 53 74 1.0 2.0 0.00 0.00 0.00 90 1009.5
20260508011109 53 70 0.0 1.0 0.00 0.00 0.00 90 1009.5
20260508010030 53 82 1.0 2.0 0.00 0.00 0.00 90 1009.8
20260508005054 53 77 1.0 3.0 0.00 0.00 0.00 90 1009.8
20260508004118 53 119 2.0 4.0 0.00 0.00 0.00 90 1009.8
20260508003038 53 117 2.0 4.0 0.00 0.00 0.00 90 1009.9
20260508002101 53 113 2.0 4.0 0.00 0.00 0.00 91 1010.0
20260508001041 53 89 2.0 3.0 0.00 0.00 0.00 91 1010.0
20260508000046 53 97 2.0 4.0 0.00 0.00 0.00 91 1010.1
20260507235110 53 103 2.0 3.0 0.00 0.00 0.00 92 1010.0
20260507234030 53 99 2.0 2.0 0.00 0.00 0.00 91 1010.2
20260507233054 54 93 2.0 3.0 0.00 0.00 0.00 91 1010.3
20260507232118 54 78 1.0 2.0 0.00 0.00 0.00 91 1010.4
20260507231037 54 85 1.0 2.0 0.00 0.00 0.00 91 1010.4
20260507225042 55 75 1.0 2.0 0.00 0.00 0.00 90 1010.5
20260507224046 55 48 0.0 2.0 0.00 0.00 0.00 91 1010.6
20260507223110 55 70 2.0 4.0 0.00 0.00 0.00 90 1010.8
20260507222031 55 111 2.0 6.0 0.00 0.00 0.00 90 1010.9
20260507221054 55 106 3.0 4.0 0.00 0.00 0.00 90 1010.9
20260507220137 55 115 2.0 4.0 0.00 0.00 0.00 89 1010.8
20260507215058 56 109 2.0 3.0 0.00 0.00 0.00 89 1010.9
20260507214102 56 97 2.0 3.0 0.00 0.00 0.00 88 1011.0